Regional & State Weather Roundups


976 
NZUS52 KFFC 152310
RWROBS
WEATHER ROUNDUP FOR GEORGIA
NATIONAL WEATHER SERVICE PEACHTREE CITY GA
600 PM EST FRI DEC 15 2017
NOTE: "FAIR" INDICATES FEW OR NO CLOUDS BELOW 12,000 FEET WITH NO
SIGNIFICANT WEATHER AND/OR OBSTRUCTIONS TO VISIBILITY. 
* = USE WITH CAUTION. THE STATIONS MARKED WITH AN ASTERISK MAY NOT
REPORT WEATHER SUCH AS PRECIPITATION, FOG, OR THUNDER AND ARE NOT 
QUALITY CONTROLLED BY NWS.
THE REMARK "TC" DENOTES TEMPERATURE READING IN DEGREES CELSIUS.
GAZ001>058-160000-
NORTH GEORGIA
  
CITY           SKY/WX    TMP DP  RH WIND       PRES   REMARKS
ATLANTA        MOCLDY    37  24  59 NW14      30.13R WCI  28          
ATHENS         CLOUDY    39  24  55 W10       30.08R WCI  32          
CHAMBLEE       CLOUDY    35  22  58 NW9       30.14R WCI  28          
PEACHTREE CITY CLOUDY    39  24  55 NW10      30.14R WCI  32          
ROME           CLOUDY    36  24  62 NW3       30.17R                  
WEST ATLANTA   CLOUDY    36  24  62 NW7       30.15R WCI  30          
GAINESVILLE    MOCLDY    33  23  66 W12G21    30.10R WCI  24          
CARTERSVILLE   CLOUDY    34  24  67 CALM      30.17R                  
  
CITY           SKY/WX    TMP DP  RH WIND       PRES   REMARKS
DALTON         CLEAR     32  25  74 CALM      30.20R                  
LAWRENCEVILLE  CLOUDY    35  22  58 W7G18     30.11R WCI  29          
MARIETTA       CLOUDY    35  22  59 NW7       30.13R WCI  29          
KENNESAW       PTCLDY    35  22  58 W7        30.15R WCI  29          
WINDER         CLOUDY    37  23  56 NW15      30.13R WCI  28          
CANTON         FAIR      34  27  75 NW8       30.14R WCI  27          
TOCCOA         PTCLDY    41  27  56 W6        30.05R WCI  37          
CORNELIA       FAIR      35  22  59 NW7       30.06R WCI  29          
CANON          FAIR      40  27  59 W6        30.05S WCI  36          
JASPER         FAIR      31  23  72 NW10      30.14R WCI  22          
$$
GAZ059>098-102>109-160000-
CENTRAL GEORGIA
  
CITY           SKY/WX    TMP DP  RH WIND       PRES   REMARKS
AUGUSTA-BUSH   CLOUDY    51  29  42 W10       30.03S                  
AUGUSTA-DANIEL CLOUDY    50  30  46 W8        30.04R                  
COLUMBUS       CLOUDY    44  25  47 NW9       30.16R WCI  39          
MACON          CLOUDY    45  26  47 NW12G17   30.12R WCI  39          
ROBINS AFB     CLOUDY    45  26  47 NW12G17   30.12R WCI  39          
GREENSBORO     CLOUDY    41  28  60 W5        30.05S WCI  38          
THOMSON        CLOUDY    45  26  47 N12G20    30.11R WCI  39          
SANDERSVILLE   FAIR      48  30  50 NW6       30.07S                  
THOMASTON      CLOUDY    41  21  45 NW7       30.14S WCI  36          
BUTLER           N/A     43  25  50 NW5       30.13R                  
  
CITY           SKY/WX    TMP DP  RH WIND       PRES   REMARKS
LAGRANGE       PTCLDY    41  26  55 N6        30.16R WCI  37          
SYLVANIA       CLOUDY    54  41  61 W3        30.04S                  
MILLEDGEVILLE  FAIR      45  28  53 NW12      30.10R WCI  39          
CARROLLTON     FAIR      34  24  66 NW6       30.18R WCI  29          
AMERICUS       FAIR      45  27  49 NW9       30.16R WCI  40          
CORDELE        FAIR      53  32  45 NW9       30.13R                  
$$
GAZ099>101-110>166-160000-
SOUTH GEORGIA
  
CITY           SKY/WX    TMP DP  RH WIND       PRES   REMARKS
SAVANNAH       CLOUDY    55  42  61 W9        30.05R                  
VALDOSTA       CLOUDY    54  41  61 CALM      30.11F                  
ALMA           PTCLDY    54  42  64 SW5       30.08S                  
ST SIMONS      MOCLDY    59  41  51 W9        30.07R                  
FT STEWART       N/A     54  41  62 SW7         N/A                   
ALBANY         CLOUDY    49  32  52 W9        30.15R                  
HUNTER AFB       N/A     55  43  62 SW7         N/A                   
MOODY AFB      CLOUDY    54  40  61 W6        30.09S                  
BRUNSWICK      CLOUDY    59  39  47 W8        30.08R                  
  
CITY           SKY/WX    TMP DP  RH WIND       PRES   REMARKS
BAINBRIDGE     CLOUDY    52  41  66 NW7       30.15R                  
MOULTRIE       CLOUDY    52  41  66 CALM      30.12R                  
VIDALIA        CLOUDY    54  41  62 CALM      30.07S                  
WAYCROSS       CLOUDY    55  41  58 W5        30.09R                  
DOUGLAS        CLOUDY    52  41  66 SW6       30.10S                  
TIFTON         MOCLDY    51  38  61 W5        30.11R                  
HAZELHURST     FAIR      53  33  46 CALM      30.07S                  
$$
  

977 
ASUS42 KFFC 152310
RWRGA 
WEATHER ROUNDUP FOR GEORGIA
NATIONAL WEATHER SERVICE PEACHTREE CITY GA
600 PM EST FRI DEC 15 2017
NOTE: "FAIR" INDICATES FEW OR NO CLOUDS BELOW 12,000 FEET WITH NO
SIGNIFICANT WEATHER AND/OR OBSTRUCTIONS TO VISIBILITY. 
* = USE WITH CAUTION. THE STATIONS MARKED WITH AN ASTERISK MAY NOT
REPORT WEATHER SUCH AS PRECIPITATION, FOG, OR THUNDER AND ARE NOT 
QUALITY CONTROLLED BY NWS.
THE REMARK "TC" DENOTES TEMPERATURE READING IN DEGREES CELSIUS.
GAZ001>058-160000-
NORTH GEORGIA
  
CITY           SKY/WX    TMP DP  RH WIND       PRES   REMARKS
ATLANTA        MOCLDY    37  24  59 NW14      30.13R WCI  28          
ATHENS         CLOUDY    39  24  55 W10       30.08R WCI  32          
CHAMBLEE       CLOUDY    35  22  58 NW9       30.14R WCI  28          
PEACHTREE CITY CLOUDY    39  24  55 NW10      30.14R WCI  32          
ROME           CLOUDY    36  24  62 NW3       30.17R                  
WEST ATLANTA   CLOUDY    36  24  62 NW7       30.15R WCI  30          
GAINESVILLE    MOCLDY    33  23  66 W12G21    30.10R WCI  24          
CARTERSVILLE   CLOUDY    34  24  67 CALM      30.17R                  
  
CITY           SKY/WX    TMP DP  RH WIND       PRES   REMARKS
DALTON*        CLEAR     32  25  74 CALM      30.20R                  
LAWRENCEVILLE* CLOUDY    35  22  58 W7G18     30.11R WCI  29          
MARIETTA       CLOUDY    35  22  59 NW7       30.13R WCI  29          
KENNESAW*      PTCLDY    35  22  58 W7        30.15R WCI  29          
CANTON*        CLOUDY    34  27  75 NW8       30.14R WCI  27          
$$
GAZ059>098-102>109-160000-
CENTRAL GEORGIA
  
CITY           SKY/WX    TMP DP  RH WIND       PRES   REMARKS
AUGUSTA-BUSH   CLOUDY    51  29  42 W10       30.03S                  
AUGUSTA-DANIEL CLOUDY    50  30  46 W8        30.04R                  
COLUMBUS       CLOUDY    44  25  47 NW9       30.16R                  
MACON          CLOUDY    45  26  47 NW12G17   30.12R                  
ROBINS AFB     CLOUDY    46  27  47 NW8       30.11R                  
  
CITY           SKY/WX    TMP DP  RH WIND       PRES   REMARKS
LAGRANGE*      CLOUDY    41  26  55 N6        30.16R                  
SYLVANIA*      CLOUDY    54  41  61 W3        30.04S                  
MILLEDGEVILLE* CLOUDY    45  28  53 NW12      30.10R                  
$$
GAZ099>101-110>166-160000-
SOUTH GEORGIA
  
CITY           SKY/WX    TMP DP  RH WIND       PRES   REMARKS
SAVANNAH       CLOUDY    55  42  61 W9        30.05R                  
VALDOSTA       CLOUDY    54  41  61 CALM      30.11F                  
ALMA           PTCLDY    54  42  64 SW5       30.08S                  
ST SIMONS      MOCLDY    59  41  51 W9        30.07R                  
FT STEWART       N/A     54  41  62 SW7         N/A                   
ALBANY         CLOUDY    49  32  52 W9        30.15R                  
HUNTER AFB       N/A     55  43  62 SW7         N/A                   
MOODY AFB      CLOUDY    54  40  61 W6        30.09S                  
BRUNSWICK      MOCLDY    59  39  47 W8        30.08R                  
  
CITY           SKY/WX    TMP DP  RH WIND       PRES   REMARKS
BAINBRIDGE*    CLOUDY    52  41  66 NW7       30.15R                  
MOULTRIE*      CLOUDY    52  41  66 CALM      30.12R                  
VIDALIA*       CLOUDY    54  41  62 CALM      30.07S                  
WAYCROSS*      CLOUDY    55  41  58 W5        30.09R                  
DOUGLAS*       CLOUDY    52  41  66 SW6       30.10S                  
$$